Regional Weather Roundup
Issued by NWS

Home | Current Version | Previous Version | Graphics & Text | Print | Product List | Glossary Off
Versions: 1 2 3 4 5 6 7 8 9 10 11 12 13 14 15 16 17 18 19 20 21 22 23 24 25 26 27 28 29 30 31 32 33 34 35 36 37 38 39 40 41 42 43 44 45 46 47 48 49 50

000
ASUS43 KMKX 222100
RWRWI

WISCONSIN REGIONAL WEATHER ROUNDUP
NATIONAL WEATHER SERVICE MILWAUKEE/SULLIVAN WI
400 PM CDT MON SEP 22 2014

NOTE: "FAIR" INDICATES FEW OR NO CLOUDS BELOW 12,000 FEET WITH NO
SIGNIFICANT WEATHER AND/OR OBSTRUCTIONS TO VISIBILITY.

WIZ001-002-006>008-014>016-023>028-222200-
NORTHWEST WISCONSIN

CITY           SKY/WX    TMP DP  RH WIND       PRES   REMARKS
SUPERIOR ARPT  SUNNY     73  52  48 SW13      30.11F
ASHLAND        SUNNY     70  50  49 W10G18    30.12F
HAYWARD        MOSUNNY   67  50  54 SW9       30.16F
SIREN          SUNNY     69  50  49 SW12      30.17F
RICE LAKE      MOSUNNY   68  50  52 SW9       30.19F
LADYSMITH      SUNNY     68  50  52 W8        30.19F
EAU CLAIRE     NOT AVBL
MENOMONIE      PTCLDY    70  49  47 SW10      30.20F
NEW RICHMOND   SUNNY     70  49  47 W9        30.20F
OSCEOLA        SUNNY     70  51  50 SW6       30.21F
$$

WIZ003>005-009-010-017-018-222200-
NORTH CENTRAL WISCONSIN

CITY           SKY/WX    TMP DP  RH WIND       PRES   REMARKS
WOODRUFF       SUNNY     65  47  53 W9        30.16F
RHINELANDER    SUNNY     65  46  50 W10       30.17F
EAGLE RIVER    SUNNY     65  44  47 W10       30.15F
LAND O LAKES   SUNNY     66  46  48 W7        30.15S
PHILLIPS       SUNNY     66  49  54 W8        30.16F
TOMAHAWK       SUNNY     65  47  52 W9        30.18S
MEDFORD        SUNNY     64  49  57 SW9       30.19F
MERRILL        SUNNY     66  49  55 W12       30.17F
$$

WIZ029-030-035-036-043>047-222200-
CENTRAL WISCONSIN

CITY           SKY/WX    TMP DP  RH WIND       PRES   REMARKS
WAUSAU         SUNNY     66  49  54 W12       30.17F
MOSINEE        SUNNY     64  50  59 SW10      30.19F
MARSHFIELD     SUNNY     67  49  52 W14       30.18F
STEVENS POINT  SUNNY     65  48  55 W9        30.19F
WAUPACA        MOSUNNY   70  48  44 W10G16    30.18F
WAUTOMA        NOT AVBL
WISC RAPIDS    SUNNY     68  48  48 W12       30.20F
CAMP DOUGLAS   NOT AVBL
$$

WIZ011>013-019>022-031-037>040-048>050-222200-
NORTHEAST WISCONSIN

CITY           SKY/WX    TMP DP  RH WIND       PRES   REMARKS
ANTIGO         SUNNY     64  49  57 W10G16    30.17F
STURGEON BAY   SUNNY     66  46  48 SW13G18   30.15F
GREEN BAY      MOSUNNY   68  49  50 W10       30.17F
MANITOWOC      NOT AVBL
APPLETON       PTSUNNY   66  46  48 W13       30.19F
CLINTONVILLE   SUNNY     68  46  45 W12       30.17F
OSHKOSH        MOSUNNY   67  48  50 VRB6      30.18F
$$

WIZ032>034-041-042-053>061-222200-
SOUTHWEST WISCONSIN

CITY           SKY/WX    TMP DP  RH WIND       PRES   REMARKS
LA CROSSE      SUNNY     72  50  45 VRB5      30.20F
SPARTA         SUNNY     67  48  51 W7        30.22F
VIROQUA        FAIR      69  48  47 SW8       30.22F
BOSCOBEL       SUNNY     72  49  44 W8        30.22F
PRAIRIE DU CHI SUNNY     71  45  38 W6        30.22F
PLATTEVILLE    FAIR      69  46  44 W9        30.25F
$$

WIZ056-057-062-063-064-067-068-222200-
SOUTH CENTRAL WISCONSIN

CITY           SKY/WX    TMP DP  RH WIND       PRES   REMARKS
BARABOO/DELLS  SUNNY     67  46  47 W7        30.22S
LONE ROCK      NOT AVBL
WATERTOWN      MOSUNNY   67  47  47 W8        30.21F
MADISON        MOSUNNY   70  48  45 NW9       30.22F
MIDDLETON      FAIR      70  46  42 NW8       30.23F
MONROE         SUNNY     68  43  40 NW6       30.23F
JANESVILLE     SUNNY     70  43  37 W7        30.22F
$$

WIZ051-052-058>065-066-070>072-222200-
SOUTHEAST WISCONSIN

CITY           SKY/WX    TMP DP  RH WIND       PRES   REMARKS
MILWAUKEE      MOSUNNY   68  43  40 W9        30.21F
WAUKESHA       MOSUNNY   64  45  48 W7        30.22F
MILWAUKEE/TIMM SUNNY     66  43  42 W8        30.21F
RACINE         MOSUNNY   67  45  45 SW10      30.23F
BURLINGTON     SUNNY     66  42  42 NW6G17    30.22F
KENOSHA        MOSUNNY   68  46  45 W9        30.23F
FOND DU LAC    PTSUNNY   68  47  46 SW10      30.20F
SHEBOYGAN      SUNNY     68  46  45 W12       30.19F
WEST BEND      MOSUNNY   66  43  42 W6        30.21F
JUNEAU         MOSUNNY   66  47  50 W9        30.22F
$$

LSZ147-162-222200-
LAKE SUPERIOR

STATION/POSITION TIME  TEMP    WIND        PRES    WAVE
                       AIR SEA DIR/SP/G            HT/PER
                 (UTC) (F)     (DEG/KT/KT) (MB)    (FT/S)
W MID LAKE BUOY  1950   53 46  220/ 14/ 16 1018.7F   2/ 4
DEVILS ISLAND    2000   60     230/ 15/ 18 1019.2F
PORT WING        2000   69     260/  7/ 12 1020.0
SAXON HARBOR     2000   69     200/  8/ 15 1020.3F
$$

LMZ867-665-643>646-222200-
LAKE MICHIGAN

STATION/POSITION TIME  TEMP    WIND        PRES    WAVE
                       AIR SEA DIR/SP/G            HT/PER
                 (UTC) (F)     (DEG/KT/KT) (MB)    (FT/S)
N MID LAKE BUOY  1950   57 57  230/ 14/ 17 1020.7F   2/ 4
NORTHPORT PIER   2000   66     200/  4/ 14 1020.3F
KEWAUNEE LAKESHO 2000   66     250/  9/ 13 1021.0F
SHEBOYGAN LAKESH 2000   64 53  290/  7/ 11 1023.2F
PORT WASHINGTON  2000   69     240/  5/ 12 1023.4F
ATWATER BUOY     2000   59     150/ 10/ 12 1024.3F
MILWAUKEE LAKESH 2000   58     120/ 12/ 15   N/A
S MID LAKE BUOY  1950   57 62  230/  8/  8 1024.7F   3/ 7
KENOSHA   LAKESH 2000   60     150/ 11/ 12 1023.7F
$$

TC  - TEMPERATURE IN CELSIUS
VSB - VISIBILITY IN STATUTE MILES
WCI - WIND CHILL INDEX
HX  - HEAT INDEX



USA.gov is the U.S. government's official web portal to all federal, state and local government web resources and services.